Weather History for Tacoma, WA

Change the Weather History Date:

Wednesday, February 5, 2014

  Actual Average Record
Temperature  
Mean Temperature 24 °F -  
Max Temperature 31 °F 46 °F 60 °F (1978)
Min Temperature 18 °F 30 °F 12 °F (1989)
Degree Days  
Heating Degree Days 40    
Moisture  
Dew Point 4 °F    
Average Humidity 42    
Maximum Humidity 54    
Minimum Humidity 33    
Precipitation  
Precipitation 0.00 in - - ()
Sea Level Pressure  
Sea Level Pressure 30.42 in    
Wind  
Wind Speed 3 mph (NE)    
Max Wind Speed 9 mph    
Max Gust Speed -    
Visibility 10 miles    
Events      
Averages and records for this station are not official NWS values.
T = Trace of Precipitation, MM = Missing Value Source: NWS Daily Summary

Daily Weather History Graph

Daily Weather History Graph

Search for Another Location

Airport:

Trip Planner

Search our weather history database for the weather conditions in past years. The results will help you decide how hot, cold, wet, or windy it might be!

Date:

Astronomy

Feb. 05, 2014 Rise Set
Actual Time 7:29 AM PST 5:18 PM PST
Civil Twilight 6:57 AM PST 5:51 PM PST
Nautical Twilight 6:21 AM PST 6:27 PM PST
Astronomical Twilight 5:45 AM PST 7:03 PM PST
Moon 10:19 AM PST (2/5) No Moon Set
Length of Visible Light 10h 53m
Length of Day
9h 49m
Waxing Crescent, 40% of the Moon is Illuminated
Feb 5
Waxing Crescent
Feb 6
First Quarter
Feb 14
Full
Feb 22
Last Quarter
Mar 1
New

Hourly Weather History & Observations

Time (PST) Temp. Windchill Dew Point Humidity Pressure Visibility Wind Dir Wind Speed Gust Speed Precip Events Conditions
12:58 AM 27.7 °F - 12.9 °F 54% 30.43 in 10.0 mi ENE 1.2 mph - N/A   Overcast
1:58 AM 27.1 °F - 10.2 °F 49% 30.44 in 10.0 mi NNE 2.3 mph - N/A   Overcast
2:58 AM 26.1 °F 21.9 °F 7.0 °F 44% 30.44 in 10.0 mi Variable 3.5 mph - N/A   Overcast
3:58 AM 23.7 °F 19.3 °F 6.1 °F 47% 30.45 in 10.0 mi NE 3.5 mph - N/A   Mostly Cloudy
4:58 AM 22.5 °F - 5.2 °F 48% 30.46 in 10.0 mi NE 1.2 mph - N/A   Mostly Cloudy
5:58 AM 21.2 °F - 4.5 °F 49% 30.46 in 10.0 mi NE 2.3 mph - N/A   Clear
6:58 AM 20.3 °F - 4.3 °F 50% 30.46 in 10.0 mi NNE 2.3 mph - N/A   Clear
7:58 AM 19.9 °F - 4.6 °F 52% 30.47 in 10.0 mi Calm Calm - N/A   Clear
8:58 AM 23.9 °F 19.5 °F 3.7 °F 42% 30.48 in 10.0 mi NNE 3.5 mph - N/A   Clear
9:58 AM 26.6 °F - 4.5 °F 39% 30.47 in 10.0 mi Calm Calm - N/A   Clear
10:58 AM 26.6 °F 22.6 °F 3.6 °F 37% 30.47 in 10.0 mi NE 3.5 mph - N/A   Mostly Cloudy
11:58 AM 29.7 °F - 4.3 °F 34% 30.45 in 10.0 mi Variable 1.2 mph - N/A   Scattered Clouds
12:58 PM 30.7 °F 24.1 °F 4.8 °F 33% 30.44 in 10.0 mi NE 6.9 mph - N/A   Clear
1:58 PM 31.3 °F 23.3 °F 5.2 °F 33% 30.42 in 10.0 mi NE 9.2 mph - N/A   Clear
2:58 PM 31.3 °F 23.9 °F 5.0 °F 33% 30.39 in 10.0 mi ENE 8.1 mph - N/A   Clear
3:58 PM 29.8 °F 23.0 °F 4.3 °F 34% 30.39 in 10.0 mi Variable 6.9 mph - N/A   Clear
4:58 PM 27.0 °F 21.6 °F 2.1 °F 34% 30.38 in 10.0 mi ENE 4.6 mph - N/A   Clear
5:58 PM 23.9 °F 18.0 °F 0.7 °F 37% 30.38 in 10.0 mi NE 4.6 mph - N/A   Clear
6:58 PM 21.4 °F 16.6 °F -0.6 °F 38% 30.37 in 10.0 mi Variable 3.5 mph - N/A   Clear
7:58 PM 20.1 °F - -0.2 °F 41% 30.36 in 10.0 mi Variable 1.2 mph - N/A   Clear
8:58 PM 19.0 °F - 0.3 °F 44% 30.36 in 10.0 mi NNE 2.3 mph - N/A   Clear
9:58 PM 18.7 °F 13.5 °F 1.0 °F 46% 30.35 in 10.0 mi North 3.5 mph - N/A   Clear
10:58 PM 18.0 °F 12.7 °F 0.5 °F 47% 30.34 in 10.0 mi North 3.5 mph - N/A   Clear
11:58 PM 18.5 °F - -0.8 °F 43% 30.32 in 10.0 mi NNE 1.2 mph - N/A   Clear